Flag for Germany Weather past 2 weeks in Konstanz, Baden-Württemberg, Germany

Now
62 °F

Fog.


Feels Like: 62 °F
Forecast: 58 / 77 °F
Wind: 1 mph from Northwest

Location: Konstanz

Current Time: Jul 23, 2014 at 8:16:37 AM

Latest Report: Jul 23, 2014 at 6:00 AM


Visibility: 0 mi

Pressure: 29.98 "Hg

Humidity: 98%

Dew point: 61 °F

Location of KonstanzLocation

Historic Weather in Konstanz — Graph

°F

Konstanz temperature yesterday

Maximum temperature yesterday: 68 °F (at 3:00 PM)
Minimum temperature yesterday: 61 °F (at 4:00 AM)
Average temperature yesterday: 64 °F

Past Weeks' High & Low Weather Summary

 TemperatureHumidityPressure
High91 °F (Jul 19, 6:00 PM)99% (Jul 23, 4:00 AM)30.19 "Hg (Jul 23, 4:00 AM)
Low51 °F (Jul 10, 6:00 AM)14% (Jul 18, 5:00 PM)29.78 "Hg (Jul 20, 4:00 AM)
Average66 °F75%29.95 "Hg
* Reported Jul 8 6:00 AM — Jul 23 6:00 AM, Konstanz, Weather by CustomWeather, © 2014

Note: Actual official high and low records may vary slightly from our data, if they occured in-between our weather recording intervals... More about our weather records

Advertising

Konstanz weather history for previous 24 hours

 ConditionsComfort  
Time TempWeatherWind HumidityBarometerVisibility
6:00 AM
Jul 23
62 °FFog.1 mph98%29.98 "Hg0 mi
5:00 AM62 °FLow clouds.1 mph98%29.97 "Hg0 mi
4:00 AM62 °FPassing clouds.1 mph99%29.97 "Hg0 mi
3:00 AM62 °FFog.1 mph97%29.97 "Hg3 mi
2:00 AM63 °FPassing clouds.1 mph98%29.98 "Hg2 mi
7:00 PM
Jul 22
67 °FLow clouds.1 mph90%29.93 "Hg7 mi
6:00 PM66 °FLight rain. Low clouds.2 mph94%29.93 "Hg4 mi
5:00 PM67 °FLight rain. Low clouds.2 mph90%29.92 "Hg5 mi
4:00 PM68 °FLight rain. Low clouds.1 mph92%29.90 "Hg4 mi
3:00 PM68 °FLight rain. Low clouds.1 mph90%29.90 "Hg5 mi
2:00 PM66 °FRain. Low clouds.2 mph96%29.90 "Hg3 mi
1:00 PM65 °FRain. Low clouds.2 mph95%29.89 "Hg6 mi
12:00 PM65 °FRain. Low clouds.2 mph91%29.89 "Hg7 mi
11:00 AM64 °FRain. Low clouds.3 mph93%29.88 "Hg5 mi
10:00 AM65 °FLight rain. Low clouds.3 mph90%29.87 "Hg14 mi
9:00 AM64 °FLight rain. Low clouds.5 mph93%29.86 "Hg14 mi
8:00 AM63 °FLight rain. Low clouds.3 mph95%29.85 "Hg7 mi
Weather by CustomWeather, © 2014

See weather overviewHow to use our weather pages